Location: Byszew
(52.1813°N, 19.2693°E)
Time: 20:58:41
(UTC+00:00)

USA 305 - Pass Details

Date: 03 March 2021
Orbit: 567 x 574 km, 54.0° (Epoch: 13 April)

Event Time Altitude Azimuth Distance (km) Brightness Sun altitude
Rises 18:06:41 0° 274° (W) 2,780 8.2 -16.1°
Reaches altitude 10° 18:08:57 10° 277° (W) 1,881 6.9 -16.5°
Maximum altitude 18:13:13 68° 1° (N) 621 3.0 -17.1°
Enters shadow 18:14:59 34° 74° (ENE) 961 3.6 -17.4°
